Flag for United Arab Emirates Weather past 2 weeks in Ras al-Khaimah, Ras al-Khaimah, United Arab Emirates

Now
104 °F

Sunny.


Feels Like: 104 °F
Forecast: 77 / 110 °F
Wind: 16 mph from North

Location: Ras Al Khaimah International Airport

Current Time: May 30, 2015 at 5:08:49 PM

Latest Report: May 30, 2015 at 4:00 PM


Visibility: 10 mi

Pressure: 29.68 "Hg

Humidity: 21%

Dew point: 57 °F

Location of Ras al-KhaimahLocation

Historic Weather in Ras al-Khaimah — Graph

°F

Ras al-Khaimah temperature yesterday

Maximum temperature yesterday: 106 °F (at 1:00 PM)
Minimum temperature yesterday: 73 °F (at 5:00 AM)
Average temperature yesterday: 90 °F

Past Weeks' High & Low Weather Summary

 TemperatureHumidityPressure
High111 °F (May 16, 1:00 PM)74% (May 20, 1:00 AM)29.77 "Hg (May 20, 1:00 AM)
Low70 °F (May 21, 5:00 AM)6% (May 23, 10:00 AM)29.59 "Hg (May 26, 12:00 AM)
Average91 °F34%29.68 "Hg
* Reported May 15 4:00 PM — May 30 4:00 PM, Ras al-Khaimah, Weather by CustomWeather, © 2015

Note: Actual official high and low records may vary slightly from our data, if they occured in-between our weather recording intervals... More about our weather records

Advertising

Ras al-Khaimah weather history for previous 24 hours

 ConditionsComfort  
Time TempWeatherWind HumidityBarometerVisibility
4:00 PM
Sat, May 30
104 °FSunny.16 mph21%29.68 "Hg10 mi
3:00 PM106 °FSunny.14 mph20%29.71 "Hg10 mi
2:00 PM108 °FSunny.15 mph18%29.71 "Hg10 mi
1:00 PM111 °FSunny.17 mph13%29.71 "Hg10 mi
12:00 PM111 °FSunny.5 mph7%29.74 "Hg10 mi
11:00 AM109 °FSunny.3 mph8%29.74 "Hg10 mi
10:00 AM108 °FSunny.10 mph11%29.74 "Hg10 mi
9:00 AM102 °FSunny.13 mph16%29.74 "Hg10 mi
8:00 AM91 °FSunny.2 mph30%29.74 "Hg10 mi
7:00 AM81 °FSunny.2 mph42%29.71 "Hg10 mi
6:00 AM75 °FSunny.2 mph47%29.71 "Hg10 mi
5:00 AM75 °FClear.3 mph50%29.68 "Hg10 mi
4:00 AM75 °FClear.2 mph54%29.68 "Hg10 mi
3:00 AM77 °FClear.2 mph51%29.68 "Hg10 mi
2:00 AM81 °FClear.6 mph48%29.68 "Hg10 mi
1:00 AM79 °FClear.3 mph45%29.68 "Hg10 mi
12:00 AM81 °FClear.7 mph42%29.68 "Hg10 mi
11:00 PM
Fri, May 29
81 °FClear.3 mph48%29.68 "Hg10 mi
10:00 PM82 °FClear.2 mph45%29.68 "Hg10 mi
9:00 PM88 °FClear.5 mph38%29.65 "Hg10 mi
8:00 PM90 °FClear.5 mph38%29.65 "Hg10 mi
7:00 PM91 °FSunny.8 mph36%29.65 "Hg10 mi
6:00 PM95 °FSunny.9 mph30%29.62 "Hg10 mi
5:00 PM97 °FSunny.10 mph27%29.62 "Hg10 mi
Weather by CustomWeather, © 2015

See weather overviewHow to use our weather pages